Weather History for Cape Cod CGAS, MA

Change the Weather History Date:

Saturday, January 19, 2013

  Actual Average Record
Temperature  
Mean Temperature 29 °F -  
Max Temperature 46 °F 32 °F 46 °F (1999)
Min Temperature 12 °F 16 °F -4 °F (2005)
Degree Days  
Heating Degree Days 36    
Moisture  
Dew Point 30 °F    
Average Humidity 72    
Maximum Humidity 86    
Minimum Humidity 57    
Precipitation  
Precipitation 0.00 in - - ()
Sea Level Pressure  
Sea Level Pressure 30.17 in    
Wind  
Wind Speed 14 mph (SW)    
Max Wind Speed 32 mph    
Max Gust Speed 46 mph    
Visibility 10 miles    
Events      
Averages and records for this station are not official NWS values.
T = Trace of Precipitation, MM = Missing Value Source: NWS Daily Summary

Daily Weather History Graph

Daily Weather History Graph

Search for Another Location

Airport:

Trip Planner

Search our weather history database for the weather conditions in past years. The results will help you decide how hot, cold, wet, or windy it might be!

Date:

Astronomy

Jan. 19, 2013 Rise Set
Actual Time 7:04 AM EST 4:41 PM EST
Civil Twilight 6:34 AM EST 5:12 PM EST
Nautical Twilight 6:00 AM EST 5:46 PM EST
Astronomical Twilight 5:26 AM EST 6:19 PM EST
Moon 11:07 AM EST (1/19) 12:34 AM EST (1/19)
Length of Visible Light 10h 38m
Length of Day
9h 37m
First Quarter, 57% of the Moon is Illuminated
Jan 19
First Quarter
Jan 26
Full
Feb 3
Last Quarter
Feb 10
New
Feb 17
First Quarter

Hourly Weather History & Observations

Time (EST) Temp. Windchill Dew Point Humidity Pressure Visibility Wind Dir Wind Speed Gust Speed Precip Events Conditions
12:15 AM 12.2 °F - 6.8 °F 79% 30.43 in 10.0 mi Calm Calm - N/A   Unknown
12:35 AM 14.0 °F - 8.6 °F 79% 30.42 in 10.0 mi Calm Calm - N/A   Unknown
12:55 AM 14.0 °F 8.2 °F 8.6 °F 79% 30.41 in 10.0 mi North 3.5 mph - N/A   Unknown
1:15 AM 14.0 °F - 8.6 °F 79% 30.40 in 10.0 mi Calm Calm - N/A   Unknown
1:35 AM 14.0 °F - 8.6 °F 79% 30.40 in 10.0 mi Calm Calm - N/A   Unknown
1:55 AM 14.0 °F - 10.4 °F 86% 30.41 in 10.0 mi Calm Calm - N/A   Unknown
2:15 AM 15.8 °F 10.2 °F 12.2 °F 86% 30.40 in 10.0 mi SSE 3.5 mph - N/A   Unknown
2:35 AM 21.2 °F 12.6 °F 15.8 °F 80% 30.38 in 10.0 mi South 6.9 mph - N/A   Unknown
2:55 AM 26.6 °F 19.1 °F 19.4 °F 74% 30.38 in 10.0 mi South 6.9 mph - N/A   Unknown
3:15 AM 30.2 °F 20.2 °F 21.2 °F 69% 30.36 in 10.0 mi SSW 12.7 mph - N/A   Unknown
3:35 AM 30.2 °F 22.6 °F 23.0 °F 75% 30.35 in 10.0 mi SSW 8.1 mph - N/A   Unknown
3:55 AM 32.0 °F 22.1 °F 23.0 °F 69% 30.34 in 10.0 mi SW 13.8 mph - N/A   Unknown
4:15 AM 33.8 °F 24.8 °F 24.8 °F 70% 30.33 in 10.0 mi SW 12.7 mph 25.3 mph N/A   Unknown
4:35 AM 33.8 °F 23.5 °F 24.8 °F 70% 30.32 in 10.0 mi SW 16.1 mph - N/A   Unknown
4:55 AM 33.8 °F 23.9 °F 24.8 °F 70% 30.32 in 10.0 mi SW 15.0 mph 25.3 mph N/A   Unknown
5:15 AM 35.6 °F 25.5 °F 26.6 °F 70% 30.31 in 10.0 mi SW 17.3 mph 23.0 mph N/A   Unknown
5:35 AM 35.6 °F 24.0 °F 26.6 °F 70% 30.29 in 10.0 mi SW 23.0 mph 28.8 mph N/A   Unknown
5:55 AM 35.6 °F 24.2 °F 26.6 °F 70% 30.29 in 10.0 mi SW 21.9 mph 27.6 mph N/A   Unknown
6:15 AM 35.6 °F 23.7 °F 26.6 °F 70% 30.28 in 10.0 mi SW 24.2 mph 31.1 mph N/A   Unknown
6:35 AM 35.6 °F 23.7 °F 26.6 °F 70% 30.27 in 10.0 mi SW 24.2 mph 33.4 mph N/A   Unknown
7:55 AM 37.4 °F 26.4 °F 30.2 °F 75% 30.26 in 10.0 mi SW 23.0 mph 31.1 mph N/A   Unknown
8:15 AM 39.2 °F 28.5 °F 30.2 °F 70% 30.26 in 10.0 mi SW 24.2 mph 38.0 mph N/A   Unknown
8:55 AM 39.2 °F 28.5 °F 32.0 °F 75% 30.25 in 10.0 mi SW 24.2 mph 38.0 mph N/A   Unknown
9:15 AM 41.0 °F 30.2 °F 32.0 °F 70% 30.26 in 10.0 mi SW 27.6 mph 38.0 mph N/A   Unknown
9:35 AM 41.0 °F 31.1 °F 32.0 °F 70% 30.26 in 10.0 mi SW 23.0 mph 32.2 mph N/A   Unknown
10:35 AM 42.8 °F 33.3 °F 32.0 °F 66% 30.23 in 10.0 mi SW 24.2 mph 39.1 mph N/A   Unknown
10:55 AM 44.6 °F 34.7 °F 32.0 °F 61% 30.21 in 10.0 mi SW 29.9 mph 39.1 mph N/A   Unknown
11:15 AM 44.6 °F 35.5 °F 33.8 °F 66% 30.20 in 10.0 mi WSW 25.3 mph 40.3 mph N/A   Unknown
11:35 AM 44.6 °F 34.4 °F 33.8 °F 66% 30.18 in 10.0 mi WSW 32.2 mph 46.0 mph N/A   Unknown
12:15 PM 46.4 °F 37.2 °F 33.8 °F 62% 30.15 in 10.0 mi SW 29.9 mph 39.1 mph N/A   Unknown
12:35 PM 46.4 °F 37.2 °F 33.8 °F 62% 30.13 in 10.0 mi WSW 29.9 mph 39.1 mph N/A   Unknown
12:55 PM 46.4 °F 37.0 °F 35.6 °F 66% 30.12 in 10.0 mi SW 31.1 mph 39.1 mph N/A   Unknown
1:15 PM 46.4 °F 37.2 °F 33.8 °F 62% 30.11 in 10.0 mi WSW 29.9 mph 41.4 mph N/A   Unknown
1:35 PM 46.4 °F 37.0 °F 33.8 °F 62% 30.11 in 10.0 mi SW 31.1 mph 38.0 mph N/A   Unknown
1:55 PM 46.4 °F 37.9 °F 33.8 °F 62% 30.10 in 10.0 mi WSW 25.3 mph 42.6 mph N/A   Unknown
2:15 PM 46.4 °F 37.7 °F 33.8 °F 62% 30.09 in 10.0 mi WSW 26.5 mph 39.1 mph N/A   Unknown
2:35 PM 46.4 °F 37.2 °F 33.8 °F 62% 30.09 in 10.0 mi SW 29.9 mph 38.0 mph N/A   Unknown
2:55 PM 46.4 °F 37.7 °F 32.0 °F 57% 30.08 in 10.0 mi SW 26.5 mph 39.1 mph N/A   Unknown
3:15 PM 46.4 °F 37.2 °F 32.0 °F 57% 30.07 in 10.0 mi SW 29.9 mph 36.8 mph N/A   Unknown
3:35 PM 46.4 °F 38.3 °F 32.0 °F 57% 30.07 in 10.0 mi WSW 23.0 mph 34.5 mph N/A   Unknown
3:55 PM 44.6 °F 36.9 °F 32.0 °F 61% 30.08 in 10.0 mi WSW 18.4 mph 33.4 mph N/A   Unknown
4:15 PM 44.6 °F 36.4 °F 33.8 °F 66% 30.08 in 10.0 mi SW 20.7 mph 32.2 mph N/A   Unknown
4:35 PM 42.8 °F 33.8 °F 33.8 °F 70% 30.07 in 10.0 mi WSW 21.9 mph 29.9 mph N/A   Unknown
4:55 PM 42.8 °F 34.8 °F 33.8 °F 70% 30.07 in 10.0 mi WSW 17.3 mph 27.6 mph N/A   Unknown
5:15 PM 42.8 °F 34.8 °F 35.6 °F 76% 30.06 in 10.0 mi SW 17.3 mph 26.5 mph N/A   Unknown
5:35 PM 42.8 °F 35.1 °F 35.6 °F 76% 30.06 in 10.0 mi WSW 16.1 mph 24.2 mph N/A   Unknown
5:55 PM 42.8 °F 35.8 °F 35.6 °F 76% 30.06 in 10.0 mi WSW 13.8 mph - N/A   Unknown
6:15 PM 41.0 °F 33.5 °F 35.6 °F 81% 30.06 in 10.0 mi WSW 13.8 mph - N/A   Unknown
6:35 PM 42.8 °F 35.4 °F 35.6 °F 76% 30.06 in 10.0 mi WSW 15.0 mph - N/A   Unknown
6:55 PM 42.8 °F 35.4 °F 35.6 °F 76% 30.06 in 10.0 mi WSW 15.0 mph 20.7 mph N/A   Unknown
7:15 PM 42.8 °F 34.8 °F 35.6 °F 76% 30.06 in 10.0 mi WSW 17.3 mph 21.9 mph N/A   Unknown
7:35 PM 42.8 °F 35.1 °F 35.6 °F 76% 30.05 in 10.0 mi WSW 16.1 mph 24.2 mph N/A   Unknown
7:55 PM 42.8 °F 35.1 °F 35.6 °F 76% 30.05 in 10.0 mi WSW 16.1 mph - N/A   Unknown
8:15 PM 42.8 °F 34.8 °F 35.6 °F 76% 30.04 in 10.0 mi WSW 17.3 mph 23.0 mph N/A   Unknown
8:35 PM 42.8 °F 35.4 °F 35.6 °F 76% 30.04 in 10.0 mi SW 15.0 mph 21.9 mph N/A   Unknown
8:55 PM 42.8 °F 35.8 °F 35.6 °F 76% 30.03 in 10.0 mi SW 13.8 mph - N/A   Unknown
9:15 PM 42.8 °F 35.8 °F 37.4 °F 81% 30.03 in 10.0 mi SW 13.8 mph 18.4 mph N/A   Unknown
9:35 PM 44.6 °F 38.4 °F 37.4 °F 76% 30.02 in 10.0 mi SW 12.7 mph 20.7 mph N/A   Unknown
9:55 PM 44.6 °F 37.8 °F 37.4 °F 76% 30.01 in 10.0 mi SW 15.0 mph 19.6 mph N/A   Unknown
10:15 PM 44.6 °F 38.4 °F 37.4 °F 76% 30.01 in 10.0 mi SW 12.7 mph - N/A   Unknown
10:35 PM 44.6 °F 38.1 °F 37.4 °F 76% 30.00 in 10.0 mi SW 13.8 mph 19.6 mph N/A   Unknown
10:55 PM 44.6 °F 37.2 °F 37.4 °F 76% 29.99 in 10.0 mi SW 17.3 mph 20.7 mph N/A   Unknown
11:15 PM 46.4 °F 38.7 °F 39.2 °F 76% 29.98 in 10.0 mi SW 20.7 mph 27.6 mph N/A   Unknown
11:35 PM 46.4 °F 39.0 °F 41.0 °F 81% 29.97 in 10.0 mi SW 19.6 mph 26.5 mph N/A   Unknown
11:55 PM 46.4 °F 38.7 °F 41.0 °F 81% 29.96 in 10.0 mi SW 20.7 mph 28.8 mph N/A   Unknown